EW1257 Weather Reports


Display with metric or nautical units.
time (UTC)temp
F
wind
direction
speed
MPH
gust
MPH
rain 1hr
in
rain 24hr
in
rain mn
in
humidity
%
barometer
mb
20181115105730 30 90 5.0 9.0 0.00 0.03 0.02 95 1022.4
20181115104230 30 90 1.0 11.0 0.00 0.03 0.02 95 1022.4
20181115103230 30 90 3.0 7.0 0.00 0.03 0.02 95 1022.4
20181115102230 31 90 4.0 8.0 0.00 0.03 0.02 95 1022.4
20181115100730 30 90 4.0 9.0 0.00 0.03 0.02 95 1022.7
20181115100230 31 90 2.0 6.0 0.00 0.03 0.02 95 1022.7
20181115095230 31 90 1.0 7.0 0.00 0.03 0.02 95 1023.0
20181115091230 30 90 1.0 5.0 0.00 0.03 0.02 95 1024.0
20181115085230 31 90 1.0 3.0 0.00 0.03 0.02 95 1024.4
20181115084230 30 90 1.0 1.0 0.00 0.03 0.02 95 1024.7
20181115083230 30 90 0.0 4.0 0.00 0.03 0.02 95 1025.1
20181115075730 30 90 4.0 6.0 0.00 0.03 0.02 95 1024.4
20181115075230 30 90 3.0 7.0 0.00 0.03 0.02 95 1024.4
20181115074730 30 90 3.0 7.0 0.00 0.03 0.02 95 1024.4
20181115074230 30 90 3.0 8.0 0.00 0.03 0.02 95 1024.4
20181115073729 30 90 1.0 8.0 0.00 0.03 0.02 95 1024.4
20181115072730 30 135 1.0 7.0 0.00 0.03 0.02 95 1024.0
20181115072229 30 90 1.0 7.0 0.00 0.03 0.02 95 1024.0
20181115071230 30 22 2.0 10.0 0.00 0.03 0.02 95 1024.4
20181115070230 30 135 2.0 7.0 0.00 0.03 0.02 95 1025.1
20181115065230 30 22 1.0 8.0 0.00 0.03 0.02 95 1025.7
20181115062230 29 90 0.0 8.0 0.00 0.03 0.02 94 1026.4
20181115061230 29 202 0.0 7.0 0.00 0.03 0.02 94 1026.4
20181115060229 29 90 1.0 6.0 0.00 0.03 0.02 94 1027.1
20181115055730 28 45 1.0 6.0 0.01 0.03 0.02 94 1027.4
20181115055230 28 67 2.0 6.0 0.01 0.03 0.02 94 1027.4
20181115054230 28 112 2.0 6.0 0.01 0.03 0.02 94 1027.8
20181115053230 28 135 0.0 8.0 0.01 0.03 0.02 94 1027.8
20181115052729 28 90 0.0 8.0 0.01 0.03 0.02 94 1027.8
20181115052230 28 45 1.0 7.0 0.01 0.03 0.02 94 1028.1
20181115051730 28 90 0.0 7.0 0.02 0.03 0.02 94 1028.1